This is the latest recevied weather packets stored in our database for station/object KR4DFQ. If no packets are shown the sender has not sent any weather packets the latest 10 day(s).
| Time | Temp. | Humidity | Pressure | Rain* | Wind** | Luminosity | Snow |
|---|---|---|---|---|---|---|---|
| 1787604892 | 33.89° C | 57% | 1015.3 hPa | 0 mm | - | 482 W/m² | - |
| 1787604587 | 33.89° C | 55% | 1015.7 hPa | 0 mm | - | 523 W/m² | - |
| 1787604286 | 33.89° C | 57% | 1015.4 hPa | 0 mm | - | 536 W/m² | - |
| 1787603982 | 33.89° C | 59% | 1015.9 hPa | 0 mm | - | 558 W/m² | - |
| 1787603681 | 33.89° C | 58% | 1015.8 hPa | 0 mm | - | 572 W/m² | - |
| 1787603376 | 33.89° C | 59% | 1015.7 hPa | 0 mm | - | 586 W/m² | - |
| 1787603073 | 33.89° C | 57% | 1015.9 hPa | 0 mm | - | 608 W/m² | - |
| 1787602769 | 33.89° C | 59% | 1016 hPa | 0 mm | - | 619 W/m² | - |
| 1787602468 | 33.89° C | 55% | 1015.8 hPa | 0 mm | - | 631 W/m² | - |
| 1787602163 | 33.89° C | 57% | 1016.3 hPa | 0 mm | - | 646 W/m² | - |
| 1787601862 | 34.44° C | 57% | 1016.1 hPa | 0 mm | - | 659 W/m² | - |
| 1787601558 | 33.89° C | 56% | 1016.2 hPa | 0 mm | - | 677 W/m² | - |
| 1787601253 | 33.89° C | 54% | 1016 hPa | 0 mm | - | 692 W/m² | - |
| 1787600952 | 33.89° C | 54% | 1016.4 hPa | 0 mm | - | 704 W/m² | - |
| 1787600647 | 34.44° C | 55% | 1016.3 hPa | 0 mm | - | 727 W/m² | - |
| 1787600342 | 34.44° C | 57% | 1016.4 hPa | 0 mm | - | 744 W/m² | - |
| 1787600038 | 33.89° C | 57% | 1016.3 hPa | 0 mm | - | 766 W/m² | - |
| 1787599735 | 33.89° C | 58% | 1016.3 hPa | 0 mm | - | 791 W/m² | - |
| 1787599430 | 33.89° C | 60% | 1016.7 hPa | 0 mm | - | 826 W/m² | - |
| 1787599127 | 33.89° C | 59% | 1016.9 hPa | 0 mm | - | 867 W/m² | - |
| 1787598822 | 33.89° C | 58% | 1016.8 hPa | 0 mm | - | 898 W/m² | - |
| 1787598518 | 33.89° C | 61% | 1016.7 hPa | 0 mm | - | 928 W/m² | - |
| 1787598212 | 33.33° C | 62% | 1017 hPa | 0 mm | - | 947 W/m² | - |
| 1787597908 | 32.78° C | 63% | 1017.2 hPa | 0 mm | - | 956 W/m² | - |
| 1787597607 | 31.67° C | 65% | 1017.2 hPa | 0 mm | - | 894 W/m² | - |
* Rain latest hour (hover to see other rain measurements)
** Current wind speed in m/s (hover to see current wind gust speed)